Regional Weather Roundup
Issued by NWS Sterling, VA

Home | Current Version | Previous Version | Graphics & Text | Print | Product List | Glossary On
Versions: 1 2 3 4 5 6 7 8 9 10 11 12 13 14 15 16 17 18 19 20 21 22 23 24 25 26 27 28 29 30 31 32 33 34 35 36 37 38 39 40 41 42 43 44 45 46 47 48 49 50
000
ASUS41 KLWX 252210
RWRLWX

REGIONAL WEATHER ROUNDUP
NATIONAL WEATHER SERVICE BALTIMORE MD/WASHINGTON DC
600 PM EDT MON MAY 25 2015

Note: "FAIR" indicates few or no clouds below 12,000 feet
with no significant weather and/or obstructions to visibility.
 TC=TEMPERATURE CELSIUS

 * =Non NWS site. Station does not report precipitation (e.g. rain,
    snow, etc.), thunder, or fog.

DCZ001-MDZ009-015-VAZ040>042-051-053>054-252300-
WASHINGTON METRO

CITY           SKY/WX    TMP DP  RH WIND       PRES   REMARKS
WASHINGTON NAT PTSUNNY   84  60  44 S12G22    30.20F
DULLES         PTSUNNY   81  58  45 S16G23    30.19S
ANDREWS AFB    SUNNY     82  60  47 S14       30.20F
FT BELVOIR     SUNNY     82  59  45 VRB7      30.20F
QUANTICO       SUNNY     80  62  54 SW15      30.21F
COLLEGE PARK*  SUNNY     84  55  37 S7        30.20S
LEESBURG*      SUNNY     84  61  45 S15G23    30.19F
MANASSAS*      SUNNY     82  57  42 S12G20    30.19F
GAITHERSBURG*  SUNNY     82  57  42 S10       30.23F

$$

MDZ006>007-011-014-252300-
BALTIMORE METRO

CITY           SKY/WX    TMP DP  RH WIND       PRES   REMARKS
BWI AIRPORT    MOSUNNY   83  58  42 S10G17    30.19S
MD SCIENCE CTR   N/A     82  60  47 MISG      30.19F
MARTIN STATE   SUNNY     81  64  57 S15G22    30.21F
ANNAPOLIS      MOSUNNY   76  60  57 S17G25    30.21F
FORT MEADE*    MOSUNNY   79  57  47 SW9G17    30.22S

$$

MDZ012-015-019>023-252300-
MARYLAND EASTERN SHORE

CITY           SKY/WX    TMP DP  RH WIND       PRES   REMARKS
OCEAN CITY     SUNNY     71  59  65 S10       30.29S
SALISBURY      MOSUNNY   77  58  51 S12       30.26S
BAY BRIDGE AP*   N/A    N/A N/A N/A S9G17     30.22S
CAMBRIDGE*     PTSUNNY   79  59  50 S14G24    30.24S
EASTON*        MOSUNNY   82  61  47 S15G23    30.26F

$$

MDZ017>025-252300-
SOUTHERN MARYLAND

CITY           SKY/WX    TMP DP  RH WIND       PRES   REMARKS
PATUXENT RIVER SUNNY     77  62  59 SE15      30.23S
ST INIGOES     SUNNY     77  60  55 SE14G24   30.22F
LEONARDTOWN*   SUNNY     79  61  53 SE10      30.24F

$$

MDZ003>005-252300-
NORTH CENTRAL MARYLAND

CITY           SKY/WX    TMP DP  RH WIND       PRES   REMARKS
FREDERICK*     SUNNY     84  61  45 S16       30.20
HAGERSTOWN APT SUNNY     85  58  39 S15G25    30.15F
WESTMINSTER*   SUNNY     84  57  39 S15       30.19F

$$

MDZ501>502-252300-
WESTERN MARYLAND

CITY           SKY/WX    TMP DP  RH WIND       PRES   REMARKS
OAKLAND*       SUNNY     77  54  44 W6        30.25S
CUMBERLAND*    SUNNY     88  55  33 S9        30.16S

$$

VAZ025>031-252300-
SHENANDOAH VALLEY

CITY           SKY/WX    TMP DP  RH WIND       PRES   REMARKS
WINCHESTER*    SUNNY     84  52  32 S13       30.17S
FRONT ROYAL*   FAIR      81  61  50 S10G18    30.16F
LURAY*         FAIR      84  61  45 SW12      30.18F
NEW MARKET*    FAIR      83  59  45 S10G18    30.16F
STAUNTON*      SUNNY     82  55  40 S10       30.22F
WAYNESBORO*    FAIR      78  57  47 S12       30.23F

$$

WVZ021-048>050-054>055-252300-
EASTERN WEST VIRGINIA PANHANDLE

CITY           SKY/WX    TMP DP  RH WIND       PRES   REMARKS
MARTINSBURG    SUNNY     82  61  48 S10       30.16F
PETERSBURG*    SUNNY     82  55  39 SE10      30.14F

$$

VAZ036>039-050-252300-
CENTRAL FOOTHILLS

CITY           SKY/WX    TMP DP  RH WIND       PRES   REMARKS
CHARLOTTESVILL SUNNY     81  55  40 S16G23    30.20F
CULPEPER*      SUNNY     81  58  44 S10       30.20S
ORANGE*        SUNNY     82  55  39 S10G17    30.22F
GORDONSVILLE*  FAIR      82  57  42 SW10G21   30.20F
WARRENTON*     FAIR      83  61  47 S12G17    30.20S

$$

VAZ055>057-252300-
NORTH AND CENTRAL PIEDMONT

CITY           SKY/WX    TMP DP  RH WIND       PRES   REMARKS
FREDERICKSBRG* SUNNY     85  58  38 S6        30.20F
STAFFORD*      SUNNY     82  53  36 SW8       30.24F

$$

NCZ024-NYZ072-PAZ021-071-VAZ022-071-252300-
OTHER REGIONAL OBSERVATIONS

CITY           SKY/WX    TMP DP  RH WIND       PRES   REMARKS
NEW YORK CITY  PTSUNNY   82  57  42 MISG      30.17F
PHILADELPHIA   PTSUNNY   83  56  39 S17G24    30.19F
PITTSBURGH     PTSUNNY   82  59  45 S14G21    30.13S
ROANOKE        MOSUNNY   80  57  45 SE14G21   30.24F
RICHMOND       PTSUNNY   84  56  38 S12       30.23F
RALEIGH        MOSUNNY   83  55  38 SW9       30.26S

$$

ANZ530>537-252300-
MARINE OBSERVATIONS

STATION/POSITION TIME  TEMP    WIND        PRES
                       AIR SEA DIR/SP/G
                 (UTC) (F)     (DEG/KT/KT) (MB)
THOMAS PT LIGHT  2200   72 67  170/ 24/ 26 1023.3F
BALT KEY BRIDGE  2100   75     140/ 17/ 19 1022.2F
LEWISETTA        2100   77 73              1023.8S
SOLOMONS ISLAND  2100      71                N/A
PINEY POINT      2100          200/ 10/ 12   N/A

$$



USA.gov is the U.S. government's official web portal to all federal, state and local government web resources and services.